Location: Eschentzwiller
(47.7125°N, 7.3981°E)
Time: 01:12:43
(UTC+00:00)

MOS 1 Rocket - Pass Details

Date: 27 October 2020
Orbit: 615 x 829 km, 97.4° (Epoch: 26 November)

Event Time Altitude Azimuth Distance (km) Brightness Sun altitude
Rises 18:01:54 0° 17° (NNE) 3,022 6.4 -17.7°
Reaches altitude 10° 18:04:09 10° 23° (NNE) 2,134 5.6 -18.0°
Maximum altitude 18:08:41 48° 98° (E) 924 3.5 -18.8°
Drops below altitude 10° 18:13:28 10° 174° (S) 2,250 5.8 -19.6°
Sets 18:15:53 0° 179° (S) 3,204 6.7 -20.0°
